FW7109 Weather Reports


Display with metric or nautical units.
time (UTC)temp
F
wind
direction
speed
MPH
gust
MPH
rain 1hr
in
rain 24hr
in
rain mn
in
humidity
%
barometer
mb
20260510224541 69 37 1.0 6.0 0.00 0.00 0.00 52 1018.5
20260510223038 69 30 1.0 6.0 0.00 0.00 0.00 51 1018.5
20260510221552 70 44 1.0 10.0 0.00 0.00 0.00 48 1018.4
20260510220044 71 0 2.0 5.0 0.00 0.00 0.00 48 1018.5
20260510214544 71 18 0.0 6.0 0.00 0.00 0.00 52 1018.6
20260510213041 71 0 0.0 4.0 0.00 0.00 0.00 52 1018.6
20260510211540 71 46 2.0 6.0 0.00 0.00 0.00 53 1018.2
20260510210042 70 25 1.0 6.0 0.00 0.00 0.00 50 1018.4
20260510204545 70 28 2.0 8.0 0.00 0.00 0.00 51 1018.3
20260510203042 72 19 2.0 8.0 0.00 0.00 0.00 51 1018.4
20260510201540 71 11 1.0 5.0 0.00 0.00 0.00 47 1018.5
20260510200107 73 0 0.0 8.0 0.00 0.00 0.00 47 1018.4
20260510194550 73 39 1.0 6.0 0.00 0.00 0.00 48 1018.4
20260510193043 72 0 1.0 6.0 0.00 0.00 0.00 45 1018.6
20260510191552 72 15 0.0 6.0 0.00 0.00 0.00 51 1018.4
20260510190043 72 46 0.0 4.0 0.00 0.00 0.00 52 1018.3
20260510184540 72 46 2.0 7.0 0.00 0.00 0.00 49 1018.4
20260510183047 72 39 2.0 5.0 0.00 0.00 0.00 53 1018.3
20260510181536 72 5 2.0 11.0 0.00 0.00 0.00 56 1018.3
20260510180045 71 46 3.0 9.0 0.00 0.00 0.00 51 1018.3
20260510174544 71 26 3.0 6.0 0.00 0.00 0.00 52 1018.4
20260510173048 71 326 2.0 8.0 0.00 0.00 0.00 57 1018.4
20260510171548 71 360 2.0 9.0 0.00 0.00 0.00 54 1018.5
20260510170038 71 40 2.0 6.0 0.00 0.00 0.00 56 1018.6
20260510164546 69 30 3.0 11.0 0.00 0.00 0.00 55 1018.9
20260510163041 68 40 3.0 8.0 0.00 0.00 0.00 58 1018.9
20260510161540 67 22 2.0 6.0 0.00 0.00 0.00 59 1018.9
20260510160041 67 31 2.0 6.0 0.00 0.00 0.00 64 1018.6
20260510154543 65 0 0.0 4.0 0.00 0.00 0.00 68 1018.4
20260510153040 65 38 1.0 5.0 0.00 0.00 0.00 69 1018.3
20260510151545 64 37 0.0 3.0 0.00 0.00 0.00 70 1018.0
20260510150042 64 25 1.0 5.0 0.00 0.00 0.00 72 1017.8
20260510144540 64 36 1.0 5.0 0.00 0.00 0.00 73 1017.6
20260510143042 63 31 0.0 3.0 0.00 0.00 0.00 75 1017.2
20260510141538 63 22 1.0 4.0 0.00 0.00 0.00 75 1017.1
20260510140044 64 34 1.0 6.0 0.00 0.00 0.00 75 1016.8
20260510134542 64 61 2.0 9.0 0.00 0.00 0.00 75 1016.8
20260510133054 64 34 1.0 8.0 0.00 0.00 0.00 78 1016.8
20260510131540 63 11 2.0 10.0 0.00 0.00 0.00 78 1016.5
20260510130037 63 5 2.0 6.0 0.00 0.00 0.00 81 1016.7
20260510124543 63 38 1.0 4.0 0.00 0.00 0.00 83 1016.3
20260510123056 62 50 0.0 3.0 0.00 0.00 0.00 85 1016.1
20260510121541 62 0 0.0 3.0 0.00 0.00 0.00 85 1016.2
20260510120042 61 0 0.0 1.0 0.00 0.00 0.00 87 1015.9
20260510114538 60 0 0.0 0.0 0.00 0.00 0.00 88 1015.6
20260510113045 59 0 0.0 0.0 0.00 0.00 0.00 89 1015.3
20260510111541 59 0 0.0 0.0 0.00 0.00 0.00 88 1014.9
20260510110042 59 0 0.0 0.0 0.00 0.00 0.00 86 1014.7
20260510104541 59 0 0.0 3.0 0.00 0.00 0.00 86 1014.5
20260510103042 60 0 0.0 2.0 0.00 0.00 0.00 87 1014.0
20260510101544 59 34 0.0 1.0 0.00 0.00 0.00 87 1013.8
20260510100042 59 0 0.0 0.0 0.00 0.00 0.00 86 1013.6
20260510094543 60 0 0.0 1.0 0.00 0.00 0.00 84 1013.3
20260510093041 60 0 0.0 0.0 0.00 0.00 0.00 84 1012.9
20260510091540 61 0 0.0 1.0 0.00 0.00 0.00 82 1012.9
20260510090036 61 0 0.0 1.0 0.00 0.00 0.00 82 1013.0
20260510084542 62 0 0.0 2.0 0.00 0.00 0.00 81 1012.9
20260510083041 62 42 0.0 1.0 0.00 0.00 0.00 80 1013.0
20260510081548 62 0 0.0 0.0 0.00 0.00 0.00 79 1013.1
20260510080040 63 0 0.0 1.0 0.00 0.00 0.00 76 1013.2
20260510074545 64 0 0.0 3.0 0.00 0.00 0.00 75 1013.3
20260510073101 64 38 1.0 5.0 0.00 0.00 0.00 74 1013.2
20260510071548 65 0 0.0 5.0 0.00 0.00 0.00 71 1013.3
20260510070044 65 0 0.0 4.0 0.00 0.00 0.00 68 1013.4
20260510064549 66 40 0.0 4.0 0.00 0.00 0.00 66 1013.3
20260510063045 64 19 1.0 7.0 0.00 0.00 0.00 67 1013.2
20260510061546 61 350 0.0 3.0 0.00 0.00 0.00 73 1012.9
20260510060045 61 0 0.0 4.0 0.00 0.00 0.00 72 1012.0
20260510054542 60 0 0.0 0.0 0.00 0.00 0.00 76 1011.7
20260510053041 60 0 0.0 0.0 0.00 0.00 0.00 75 1011.6
20260510051544 60 0 0.0 0.0 0.00 0.00 0.00 75 1011.5
20260510050043 60 0 0.0 0.0 0.00 0.00 0.00 76 1011.7
20260510044545 60 0 0.0 0.0 0.00 0.00 0.00 77 1011.6
20260510043048 61 0 0.0 0.0 0.00 0.00 0.00 77 1011.5
20260510041543 61 0 0.0 0.0 0.00 0.00 0.00 77 1011.5
20260510040046 61 0 0.0 0.0 0.00 0.00 0.00 77 1011.4
20260510034542 62 0 0.0 0.0 0.00 0.00 0.00 78 1011.5
20260510033043 62 0 0.0 0.0 0.00 0.00 0.00 78 1011.3
20260510031541 63 0 0.0 0.0 0.00 0.00 0.00 77 1011.2
20260510030040 63 0 0.0 0.0 0.00 0.00 0.00 77 1011.0
20260510024545 63 0 0.0 0.0 0.00 0.00 0.00 77 1010.8
20260510023039 64 0 0.0 0.0 0.00 0.00 0.00 78 1010.7
20260510021545 64 0 0.0 0.0 0.00 0.00 0.00 77 1010.7
20260510020042 65 0 0.0 0.0 0.00 0.00 0.00 76 1010.8
20260510014542 66 0 0.0 0.0 0.00 0.00 0.00 75 1010.2
20260510013041 66 0 0.0 0.0 0.00 0.00 0.00 74 1010.2
20260510011540 68 0 0.0 0.0 0.00 0.00 0.00 73 1010.1
20260510010037 69 0 0.0 0.0 0.00 0.00 0.00 72 1009.9
20260510004544 70 0 0.0 0.0 0.00 0.00 0.00 69 1009.7
20260510003047 72 0 0.0 0.0 0.00 0.00 0.00 68 1009.4
20260510001543 74 0 0.0 0.0 0.00 0.00 0.00 65 1009.3
20260510000041 75 0 0.0 0.0 0.00 0.00 0.00 63 1009.3
20260509234540 77 0 0.0 2.0 0.00 0.00 0.00 58 1009.2
20260509233036 77 0 0.0 4.0 0.00 0.00 0.00 57 1009.3
20260509231541 78 0 0.0 3.0 0.00 0.00 0.00 56 1009.4
20260509230041 78 0 0.0 5.0 0.00 0.00 0.00 58 1009.4